TimeEST,TemperatureF,Dew PointF,Humidity,Sea Level PressureIn,VisibilityMPH,Wind Direction,Wind SpeedMPH,Gust SpeedMPH,PrecipitationIn,Events,Conditions,WindDirDegrees,DateUTC
12:15 AM,14.0,12.2,93,29.93,2.0,Calm,Calm,-,N/A,Snow,Light Snow,0,2014-02-25 05:15:00
12:35 AM,14.0,12.2,93,29.93,0.8,Calm,Calm,-,N/A,Snow,Snow,0,2014-02-25 05:35:00
12:55 AM,14.0,12.2,93,29.93,0.8,NW,5.8,-,N/A,Snow,Snow,310,2014-02-25 05:55:00
1:15 AM,14.0,10.4,86,29.92,1.2,WNW,8.1,-,N/A,Snow,Light Snow,300,2014-02-25 06:15:00
1:35 AM,14.0,10.4,86,29.92,2.5,WNW,8.1,-,N/A,Snow,Light Snow,290,2014-02-25 06:35:00
1:55 AM,12.2,10.4,92,29.92,4.0,West,6.9,-,N/A,Snow,Light Snow,280,2014-02-25 06:55:00
2:15 AM,12.2,10.4,92,29.92,2.0,WNW,4.6,-,N/A,Snow,Light Snow,290,2014-02-25 07:15:00
2:30 AM,12.2,10.4,92,29.92,2.5,West,5.8,-,N/A,Snow,Light Snow,280,2014-02-25 07:30:00
2:55 AM,12.2,10.4,92,29.91,4.0,West,3.5,-,N/A,Snow,Light Snow,270,2014-02-25 07:55:00
3:15 AM,12.2,8.6,85,29.90,7.0,West,3.5,-,N/A,Snow,Light Snow,280,2014-02-25 08:15:00
4:55 AM,10.4,6.8,85,29.90,7.0,West,5.8,-,N/A,Snow,Light Snow,270,2014-02-25 09:55:00
5:15 AM,10.4,6.8,85,29.90,10.0,West,6.9,-,N/A,Snow,Light Snow,260,2014-02-25 10:15:00
5:35 AM,10.4,5.0,79,29.91,10.0,West,5.8,-,N/A,Snow,Light Snow,270,2014-02-25 10:35:00
5:55 AM,10.4,5.0,79,29.90,10.0,West,5.8,-,N/A,,Overcast,280,2014-02-25 10:55:00
6:15 AM,10.4,5.0,79,29.90,10.0,West,4.6,-,N/A,Snow,Light Snow,270,2014-02-25 11:15:00
6:35 AM,10.4,5.0,79,29.90,10.0,West,8.1,-,N/A,Snow,Light Snow,280,2014-02-25 11:35:00
6:55 AM,10.4,5.0,79,29.89,7.0,West,4.6,-,N/A,Snow,Light Snow,280,2014-02-25 11:55:00
7:15 AM,10.4,5.0,79,29.89,4.0,West,6.9,-,N/A,Snow,Light Snow,280,2014-02-25 12:15:00
7:35 AM,10.4,5.0,79,29.90,5.0,West,4.6,-,N/A,Snow,Light Snow,270,2014-02-25 12:35:00
7:55 AM,10.4,5.0,79,29.91,5.0,West,6.9,-,N/A,Snow,Light Snow,270,2014-02-25 12:55:00
8:15 AM,10.4,5.0,79,29.91,3.0,WSW,6.9,-,N/A,Snow,Light Snow,250,2014-02-25 13:15:00
8:35 AM,10.4,5.0,79,29.92,3.0,West,4.6,-,N/A,Snow,Light Snow,260,2014-02-25 13:35:00
8:50 AM,10.4,5.0,79,29.92,4.0,West,6.9,-,N/A,Snow,Light Snow,280,2014-02-25 13:50:00
9:15 AM,12.2,5.0,73,29.92,2.5,WNW,5.8,-,N/A,Snow,Light Snow,290,2014-02-25 14:15:00
9:35 AM,10.4,5.0,79,29.92,1.8,WNW,5.8,-,N/A,Snow,Light Snow,300,2014-02-25 14:35:00
9:55 AM,10.4,5.0,79,29.92,5.0,WNW,4.6,-,N/A,Snow,Light Snow,300,2014-02-25 14:55:00
10:15 AM,10.4,3.2,73,29.93,10.0,WNW,8.1,-,N/A,,Overcast,290,2014-02-25 15:15:00
10:35 AM,12.2,3.2,67,29.93,7.0,WNW,5.8,-,N/A,,Overcast,290,2014-02-25 15:35:00
10:55 AM,12.2,3.2,67,29.93,10.0,WNW,5.8,-,N/A,,Overcast,290,2014-02-25 15:55:00
11:15 AM,12.2,5.0,73,29.93,7.0,NW,8.1,-,N/A,,Overcast,310,2014-02-25 16:15:00
11:35 AM,12.2,5.0,73,29.93,5.0,WNW,5.8,-,N/A,Snow,Light Snow,290,2014-02-25 16:35:00
12:15 PM,14.0,5.0,67,29.92,7.0,WNW,6.9,-,N/A,,Overcast,300,2014-02-25 17:15:00
12:35 PM,14.0,5.0,67,29.91,10.0,Calm,Calm,-,N/A,,Overcast,0,2014-02-25 17:35:00
12:55 PM,14.0,5.0,67,29.90,10.0,WSW,6.9,-,N/A,,Overcast,240,2014-02-25 17:55:00
1:15 PM,14.0,5.0,67,29.89,10.0,West,8.1,-,N/A,,Overcast,280,2014-02-25 18:15:00
1:35 PM,17.6,5.0,58,29.88,7.0,West,6.9,16.1,N/A,,Overcast,280,2014-02-25 18:35:00
1:55 PM,15.8,5.0,62,29.88,10.0,WSW,6.9,-,N/A,,Overcast,250,2014-02-25 18:55:00
2:15 PM,17.6,5.0,58,29.88,10.0,West,9.2,-,N/A,,Overcast,280,2014-02-25 19:15:00
2:30 PM,17.6,5.0,58,29.88,10.0,West,9.2,-,N/A,,Scattered Clouds,260,2014-02-25 19:30:00
2:55 PM,17.6,5.0,58,29.88,5.0,WSW,5.8,16.1,N/A,Snow,Light Snow,250,2014-02-25 19:55:00
3:15 PM,17.6,5.0,58,29.88,10.0,West,6.9,-,N/A,,Mostly Cloudy,280,2014-02-25 20:15:00
3:35 PM,17.6,5.0,58,29.88,7.0,West,8.1,16.1,N/A,,Mostly Cloudy,280,2014-02-25 20:35:00
3:55 PM,15.8,5.0,62,29.88,10.0,West,4.6,-,N/A,,Overcast,260,2014-02-25 20:55:00
4:15 PM,15.8,5.0,62,29.87,10.0,West,8.1,-,N/A,,Overcast,280,2014-02-25 21:15:00
4:35 PM,15.8,5.0,62,29.86,10.0,WNW,9.2,-,N/A,,Overcast,300,2014-02-25 21:35:00
4:55 PM,15.8,5.0,62,29.87,10.0,WNW,4.6,-,N/A,,Overcast,290,2014-02-25 21:55:00
5:15 PM,15.8,5.0,62,29.86,10.0,WNW,4.6,-,N/A,,Overcast,290,2014-02-25 22:15:00
5:35 PM,14.0,5.0,67,29.85,10.0,West,3.5,-,N/A,,Scattered Clouds,260,2014-02-25 22:35:00
5:55 PM,14.0,3.2,62,29.85,10.0,Calm,Calm,-,N/A,,Scattered Clouds,0,2014-02-25 22:55:00
6:15 PM,12.2,3.2,67,29.86,10.0,West,3.5,-,N/A,,Clear,280,2014-02-25 23:15:00
6:35 PM,12.2,3.2,67,29.87,10.0,Calm,Calm,-,N/A,,Scattered Clouds,0,2014-02-25 23:35:00
6:55 PM,12.2,5.0,73,29.87,10.0,WNW,3.5,-,N/A,,Mostly Cloudy,300,2014-02-25 23:55:00
7:15 PM,12.2,5.0,73,29.86,10.0,WNW,5.8,-,N/A,,Overcast,290,2014-02-26 00:15:00
7:35 PM,12.2,5.0,73,29.85,10.0,WNW,5.8,-,N/A,,Overcast,300,2014-02-26 00:35:00
7:55 PM,12.2,5.0,73,29.85,10.0,WNW,5.8,-,N/A,,Overcast,300,2014-02-26 00:55:00
8:15 PM,12.2,5.0,73,29.85,10.0,West,3.5,-,N/A,,Overcast,280,2014-02-26 01:15:00
8:35 PM,12.2,6.8,79,29.85,7.0,West,3.5,-,N/A,Snow,Light Snow,270,2014-02-26 01:35:00
8:55 PM,12.2,6.8,79,29.84,3.0,West,4.6,-,N/A,Snow,Light Snow,260,2014-02-26 01:55:00
9:15 PM,12.2,8.6,85,29.84,2.0,West,4.6,-,N/A,Snow,Light Snow,260,2014-02-26 02:15:00
9:35 PM,12.2,8.6,85,29.83,4.0,WSW,3.5,-,N/A,Snow,Light Snow,250,2014-02-26 02:35:00
9:55 PM,12.2,8.6,85,29.82,5.0,WSW,4.6,-,N/A,Snow,Light Snow,240,2014-02-26 02:55:00
10:15 PM,12.2,8.6,85,29.81,7.0,WSW,5.8,-,N/A,Snow,Light Snow,240,2014-02-26 03:15:00
10:35 PM,12.2,8.6,85,29.80,4.0,SW,5.8,-,N/A,Snow,Light Snow,230,2014-02-26 03:35:00
10:55 PM,14.0,8.6,79,29.79,5.0,WSW,6.9,-,N/A,Snow,Light Snow,240,2014-02-26 03:55:00
11:15 PM,14.0,10.4,86,29.78,2.5,WSW,5.8,-,N/A,Snow,Light Snow,240,2014-02-26 04:15:00
11:35 PM,14.0,10.4,86,29.77,1.5,SW,5.8,-,N/A,Snow,Light Snow,230,2014-02-26 04:35:00
11:55 PM,14.0,10.4,86,29.76,1.8,SW,4.6,-,N/A,Snow,Light Snow,230,2014-02-26 04:55:00